NOSS 3-4 (A) - Orbit

View from above orbital plane
View from above orbital plane
View from above satellite
View from above satellite

Ground track
Ground track

The orbit data is extracted from the following two-line orbital elements,

1 31701U 07027A   13107.84571082 0.00000000  00000-0  00000-0 0    08
2 31701  63.4030 359.6892 0079000  55.6103 304.3897 13.40616423    02
Epoch (UTC): 17 April 2013 20:17:49
Eccentricity: 0.0079000
inclination: 63.4030°
perigee height: 1048 km
apogee height: 1166 km
right ascension of ascending node: 359.6892°
argument of perigee: 55.6103°
revolutions per day: 13.40616423
mean anomaly at epoch: 304.3897°
orbit number at epoch: 0

The dashed part of the orbit path shows where the satellite is in the earth's shadow,  

Developed and maintained by Chris Peat, Heavens-Above GmbH. Please read the updated FAQ before sending e-mail. Imprint. DLR